Zurück zum Katalog

YINHE 2-01

AktivKommunikationVLEO
NORAD 51946·PAYLOAD·🇨🇳 China
Dieser Satellitenname wurde noch nicht durch offizielle Quellen bestätigt.

Gestartet Mar 5, 2022 von Xichang Satellite Launch Center

Loading…

Nächste Überflüge (nächste 24 Stunden)

TLE

AktuellSource: Space-Track

Epoche: Sep 14, 2026, 15:07 UTC

1 51946U 22023A   26257.63025787  .00008125  00000-0  34193-3 0  9993
2 51946  63.4788 326.7639 0118283 346.1146  13.6721 15.17895640251292

Verfolge YINHE 2-01 in Echtzeit mit AllMySat

Download on the App Store